Voltar ao catálogo

FENGYUN 1C DEB

AtivoSSO
NORAD 31609·DEBRIS·🇨🇳 China

Lançado May 10, 1999 de Taiyuan Satellite Launch Center

Loading…

Próximas Passagens (próximas 24 horas)

TLE

AtualizadoSource: Space-Track

Época: Sep 13, 2026, 01:34 UTC

1 31609U 99025BZP 26256.06571296  .00002433  00000-0  11720-2 0  9996
2 31609  99.1986 299.0270 0090978 262.9815 126.1297 14.17583398699694

Acompanhe FENGYUN 1C DEB em tempo real com AllMySat

Download on the App Store